DIESL EHRD-EDXW

Flight info

Callsign DIESL
Flight time 1h 25m
Altitude 9000
Route ANDIK N873 HUNQI DCT DHE DCT FUFNA DCT OLDIP
Aircraft DA42/L-SBDFGRY/S

Departure

Time 2026-04-26 14:21
Airport Rotterdam The Hague Airport (EHRD)

Arrival

Time 2026-04-26 15:47
Airport Westerland Sylt Airport (EDXW)
Time Latitude Longitude Altitude Speed Heading
2026-04-26 13:58 51.95015 4.43506 -5 ft 0 kts 327°
2026-04-26 14:13 51.95050 4.43488 -5 ft 10 kts 21°
2026-04-26 14:14 51.95107 4.43567 -5 ft 10 kts 353°
2026-04-26 14:14 51.95169 4.43512 -5 ft 10 kts 328°
2026-04-26 14:14 51.95229 4.43445 -5 ft 10 kts 323°
2026-04-26 14:14 51.95221 4.43345 -5 ft 11 kts 237°
2026-04-26 14:15 51.95176 4.43234 -5 ft 12 kts 237°
2026-04-26 14:15 51.95166 4.43107 -5 ft 13 kts 317°
2026-04-26 14:15 51.95190 4.43095 -5 ft 0 kts
2026-04-26 14:19 51.95210 4.43097 -5 ft 12 kts
2026-04-26 14:20 51.95319 4.43124 -4 ft 14 kts 34°
2026-04-26 14:20 51.95377 4.43239 -5 ft 20 kts 54°
2026-04-26 14:20 51.95562 4.43707 -6 ft 75 kts 57°
2026-04-26 14:20 51.95865 4.44503 189 ft 85 kts 57°
2026-04-26 14:21 51.96140 4.45365 547 ft 86 kts 64°
2026-04-26 14:21 51.96164 4.46331 930 ft 88 kts 91°
2026-04-26 14:21 51.96094 4.47372 1328 ft 88 kts 91°
2026-04-26 14:21 51.96034 4.48333 1696 ft 89 kts 91°
2026-04-26 14:22 51.95971 4.49325 2043 ft 88 kts 93°
2026-04-26 14:22 51.95908 4.50334 2441 ft 89 kts 92°
2026-04-26 14:22 51.95858 4.51333 2872 ft 88 kts 92°
2026-04-26 14:22 51.95812 4.52361 3253 ft 91 kts 92°
2026-04-26 14:23 51.95780 4.53414 3641 ft 95 kts 92°
2026-04-26 14:23 51.95749 4.54553 3980 ft 97 kts 92°
2026-04-26 14:23 51.95709 4.55664 4369 ft 98 kts 92°
2026-04-26 14:23 51.95662 4.56786 4726 ft 102 kts 92°
2026-04-26 14:24 51.95598 4.57945 5134 ft 103 kts 93°
2026-04-26 14:24 51.95530 4.59127 5510 ft 105 kts 92°
2026-04-26 14:24 51.95618 4.60267 5858 ft 100 kts 57°
2026-04-26 14:24 51.96125 4.60974 6250 ft 96 kts 23°
2026-04-26 14:25 51.96543 4.61314 6461 ft 99 kts 24°
2026-04-26 14:25 51.97166 4.61820 6822 ft 99 kts 23°
2026-04-26 14:25 51.97800 4.62336 7143 ft 100 kts 23°
2026-04-26 14:25 51.98424 4.62855 7546 ft 100 kts 24°
2026-04-26 14:26 51.99057 4.63376 7867 ft 100 kts 24°
2026-04-26 14:26 51.99689 4.63907 8173 ft 101 kts 23°
2026-04-26 14:26 52.00317 4.64430 8498 ft 102 kts 23°
2026-04-26 14:26 52.01000 4.64996 8832 ft 103 kts 23°
2026-04-26 14:27 52.01614 4.65506 9128 ft 103 kts 23°
2026-04-26 14:27 52.02292 4.66069 9324 ft 118 kts 24°
2026-04-26 14:27 52.03085 4.66737 9324 ft 141 kts 24°
2026-04-26 14:27 52.04015 4.67522 9324 ft 156 kts 24°
2026-04-26 14:28 52.05009 4.68354 9322 ft 165 kts 24°
2026-04-26 14:28 52.06049 4.69221 9321 ft 170 kts 24°
2026-04-26 14:28 52.07127 4.70120 9322 ft 174 kts 24°
2026-04-26 14:28 52.08222 4.71033 9323 ft 177 kts 24°
2026-04-26 14:29 52.09341 4.71973 9315 ft 179 kts 24°
2026-04-26 14:29 52.10473 4.72927 9321 ft 180 kts 24°
2026-04-26 14:29 52.11601 4.73874 9318 ft 181 kts 24°
2026-04-26 14:29 52.12341 4.74494 9320 ft 180 kts 24°
2026-04-26 14:30 52.13834 4.75746 9320 ft 180 kts 24°
2026-04-26 14:30 52.14960 4.76693 9321 ft 179 kts 24°
2026-04-26 14:30 52.15843 4.77435 9320 ft 179 kts 24°
2026-04-26 14:30 52.16850 4.78281 9326 ft 180 kts 24°
2026-04-26 14:31 52.17968 4.79225 9323 ft 181 kts 24°
2026-04-26 14:31 52.19131 4.80205 9323 ft 181 kts 24°
2026-04-26 14:31 52.20229 4.81131 9325 ft 181 kts 24°
2026-04-26 14:31 52.21358 4.82082 9322 ft 181 kts 24°
2026-04-26 14:32 52.22490 4.83037 9319 ft 180 kts 24°
2026-04-26 14:32 52.23706 4.84063 9324 ft 180 kts 24°
2026-04-26 14:32 52.24750 4.84945 9327 ft 181 kts 24°
2026-04-26 14:32 52.25865 4.85888 9331 ft 182 kts 24°
2026-04-26 14:33 52.27010 4.86858 9322 ft 182 kts 24°
2026-04-26 14:33 52.28147 4.87821 9322 ft 180 kts 24°
2026-04-26 14:33 52.29326 4.88819 9328 ft 180 kts 24°
2026-04-26 14:33 52.30369 4.89702 9324 ft 181 kts 24°
2026-04-26 14:34 52.31514 4.90671 9330 ft 181 kts 24°
2026-04-26 14:34 52.32638 4.91623 9328 ft 181 kts 24°
2026-04-26 14:34 52.33786 4.92597 9331 ft 181 kts 24°
2026-04-26 14:34 52.34906 4.93548 9326 ft 182 kts 24°
2026-04-26 14:35 52.36024 4.94503 9325 ft 181 kts 24°
2026-04-26 14:35 52.37138 4.95452 9328 ft 180 kts 24°
2026-04-26 14:35 52.38254 4.96398 9327 ft 180 kts 24°
2026-04-26 14:35 52.39367 4.97343 9329 ft 180 kts 24°
2026-04-26 14:36 52.40483 4.98293 9326 ft 181 kts 24°
2026-04-26 14:36 52.41599 4.99246 9327 ft 181 kts 24°
2026-04-26 14:36 52.42712 5.00195 9327 ft 180 kts 24°
2026-04-26 14:36 52.43840 5.01155 9328 ft 180 kts 24°
2026-04-26 14:37 52.44950 5.02105 9326 ft 180 kts 24°
2026-04-26 14:37 52.46047 5.03043 9327 ft 179 kts 24°
2026-04-26 14:37 52.47166 5.04001 9330 ft 179 kts 24°
2026-04-26 14:37 52.48260 5.04937 9330 ft 179 kts 24°
2026-04-26 14:38 52.49364 5.05879 9333 ft 178 kts 24°
2026-04-26 14:38 52.50468 5.06821 9336 ft 180 kts 24°
2026-04-26 14:38 52.51600 5.07788 9329 ft 180 kts 24°
2026-04-26 14:38 52.52348 5.08431 9329 ft 179 kts 24°
2026-04-26 14:39 52.53825 5.09701 9328 ft 178 kts 24°
2026-04-26 14:39 52.54922 5.10643 9328 ft 178 kts 24°
2026-04-26 14:39 52.56030 5.11594 9332 ft 177 kts 24°
2026-04-26 14:39 52.57127 5.12535 9327 ft 177 kts 24°
2026-04-26 14:40 52.58222 5.13476 9330 ft 177 kts 24°
2026-04-26 14:40 52.58958 5.14109 9330 ft 177 kts 24°
2026-04-26 14:40 52.60056 5.15053 9332 ft 177 kts 24°
2026-04-26 14:40 52.61340 5.16159 9333 ft 177 kts 24°
2026-04-26 14:41 52.62306 5.16992 9337 ft 177 kts 24°
2026-04-26 14:41 52.63393 5.17929 9335 ft 176 kts 24°
2026-04-26 14:41 52.64485 5.18871 9337 ft 177 kts 24°
2026-04-26 14:41 52.65575 5.19813 9340 ft 177 kts 24°
2026-04-26 14:42 52.66668 5.20755 9341 ft 178 kts 24°
2026-04-26 14:42 52.67797 5.21727 9342 ft 178 kts 24°
2026-04-26 14:42 52.68887 5.22667 9342 ft 177 kts 24°
2026-04-26 14:42 52.69984 5.23618 9337 ft 178 kts 24°
2026-04-26 14:43 52.71073 5.24564 9340 ft 178 kts 24°
2026-04-26 14:43 52.72180 5.25527 9342 ft 178 kts 24°
2026-04-26 14:43 52.73281 5.26479 9346 ft 177 kts 24°
2026-04-26 14:43 52.74293 5.27800 9347 ft 182 kts 45°
2026-04-26 14:44 52.75079 5.29445 9349 ft 183 kts 48°
2026-04-26 14:44 52.75865 5.31102 9350 ft 182 kts 47°
2026-04-26 14:44 52.76666 5.32789 9350 ft 182 kts 47°
2026-04-26 14:44 52.77446 5.34434 9343 ft 182 kts 48°
2026-04-26 14:45 52.78262 5.36160 9348 ft 182 kts 48°
2026-04-26 14:45 52.78762 5.37218 9346 ft 181 kts 47°
2026-04-26 14:45 52.79929 5.39199 9346 ft 179 kts 39°
2026-04-26 14:45 52.80819 5.40641 9348 ft 179 kts 40°
2026-04-26 14:46 52.81721 5.42160 9351 ft 180 kts 41°
2026-04-26 14:46 52.82574 5.43617 9349 ft 180 kts 41°
2026-04-26 14:46 52.83462 5.45135 9354 ft 180 kts 42°
2026-04-26 14:46 52.84349 5.46652 9351 ft 180 kts 41°
2026-04-26 14:47 52.85217 5.48135 9351 ft 180 kts 41°
2026-04-26 14:47 52.86097 5.49639 9342 ft 181 kts 41°
2026-04-26 14:47 52.86687 5.50650 9346 ft 182 kts 42°
2026-04-26 14:47 52.87569 5.52159 9344 ft 182 kts 41°
2026-04-26 14:48 52.88457 5.53681 9345 ft 182 kts 42°
2026-04-26 14:48 52.89345 5.55202 9347 ft 182 kts 41°
2026-04-26 14:48 52.90223 5.56708 9347 ft 181 kts 41°
2026-04-26 14:48 52.91099 5.58210 9351 ft 181 kts 41°
2026-04-26 14:49 52.91981 5.59725 9349 ft 181 kts 41°
2026-04-26 14:49 52.92872 5.61262 9352 ft 182 kts 42°
2026-04-26 14:49 52.93756 5.62780 9346 ft 183 kts 41°
2026-04-26 14:49 52.94639 5.64293 9354 ft 183 kts 41°
2026-04-26 14:50 52.95533 5.65827 9351 ft 182 kts 42°
2026-04-26 14:50 52.96426 5.67365 9353 ft 183 kts 42°
2026-04-26 14:50 52.97307 5.68886 9354 ft 183 kts 42°
2026-04-26 14:50 52.98187 5.70404 9353 ft 182 kts 42°
2026-04-26 14:51 52.99073 5.71937 9354 ft 181 kts 42°
2026-04-26 14:51 52.99959 5.73469 9353 ft 181 kts 42°
2026-04-26 14:51 53.00845 5.74998 9350 ft 181 kts 42°
2026-04-26 14:51 53.01729 5.76524 9351 ft 180 kts 42°
2026-04-26 14:52 53.02598 5.78025 9355 ft 180 kts 42°
2026-04-26 14:52 53.03476 5.79545 9356 ft 180 kts 42°
2026-04-26 14:52 53.04352 5.81062 9357 ft 180 kts 41°
2026-04-26 14:52 53.05219 5.82563 9355 ft 180 kts 42°
2026-04-26 14:53 53.06097 5.84088 9357 ft 179 kts 42°
2026-04-26 14:53 53.06961 5.85588 9359 ft 180 kts 42°
2026-04-26 14:53 53.07825 5.87089 9356 ft 179 kts 42°
2026-04-26 14:53 53.08698 5.88607 9361 ft 179 kts 42°
2026-04-26 14:54 53.09580 5.90140 9349 ft 181 kts 42°
2026-04-26 14:54 53.10452 5.91656 9344 ft 181 kts 42°
2026-04-26 14:54 53.11334 5.93193 9349 ft 181 kts 42°
2026-04-26 14:54 53.12211 5.94721 9351 ft 180 kts 42°
2026-04-26 14:55 53.13074 5.96224 9351 ft 179 kts 42°
2026-04-26 14:55 53.13946 5.97745 9347 ft 179 kts 42°
2026-04-26 14:55 53.14807 5.99247 9354 ft 179 kts 42°
2026-04-26 14:55 53.15393 6.00268 9355 ft 181 kts 42°
2026-04-26 14:56 53.16261 6.01789 9356 ft 181 kts 42°
2026-04-26 14:56 53.17154 6.03349 9350 ft 180 kts 42°
2026-04-26 14:56 53.18027 6.04876 9352 ft 180 kts 42°
2026-04-26 14:56 53.18891 6.06384 9352 ft 180 kts 42°
2026-04-26 14:57 53.19757 6.07901 9356 ft 180 kts 42°
2026-04-26 14:57 53.20620 6.09416 9354 ft 180 kts 42°
2026-04-26 14:57 53.21485 6.10939 9352 ft 180 kts 42°
2026-04-26 14:57 53.22348 6.12451 9356 ft 180 kts 42°
2026-04-26 14:58 53.23209 6.13961 9354 ft 179 kts 42°
2026-04-26 14:58 53.24072 6.15471 9355 ft 180 kts 42°
2026-04-26 14:58 53.24925 6.16972 9356 ft 180 kts 42°
2026-04-26 14:58 53.25785 6.18488 9360 ft 180 kts 42°
2026-04-26 14:59 53.26646 6.20002 9347 ft 181 kts 42°
2026-04-26 14:59 53.27512 6.21524 9351 ft 180 kts 42°
2026-04-26 14:59 53.28381 6.23059 9349 ft 179 kts 42°
2026-04-26 14:59 53.28950 6.24063 9352 ft 179 kts 42°
2026-04-26 15:00 53.30088 6.26071 9349 ft 180 kts 42°
2026-04-26 15:00 53.30950 6.27597 9340 ft 180 kts 42°
2026-04-26 15:00 53.31816 6.29123 9348 ft 181 kts 42°
2026-04-26 15:00 53.32688 6.30663 9348 ft 183 kts 42°
2026-04-26 15:01 53.33573 6.32232 9345 ft 182 kts 42°
2026-04-26 15:01 53.34444 6.33776 9358 ft 182 kts 42°
2026-04-26 15:01 53.35336 6.35353 9347 ft 181 kts 42°
2026-04-26 15:01 53.36218 6.36915 9360 ft 183 kts 42°
2026-04-26 15:02 53.37101 6.38481 9358 ft 182 kts 42°
2026-04-26 15:02 53.37969 6.40021 9359 ft 182 kts 42°
2026-04-26 15:02 53.38851 6.41584 9359 ft 182 kts 42°
2026-04-26 15:02 53.39734 6.43153 9362 ft 182 kts 42°
2026-04-26 15:03 53.40613 6.44719 9356 ft 181 kts 42°
2026-04-26 15:03 53.41490 6.46284 9352 ft 182 kts 42°
2026-04-26 15:03 53.42357 6.47831 9353 ft 182 kts 42°
2026-04-26 15:03 53.43235 6.49390 9353 ft 181 kts 42°
2026-04-26 15:04 53.44106 6.50940 9356 ft 180 kts 42°
2026-04-26 15:04 53.44961 6.52465 9358 ft 179 kts 42°
2026-04-26 15:04 53.45812 6.53986 9361 ft 179 kts 42°
2026-04-26 15:04 53.46668 6.55514 9358 ft 179 kts 42°
2026-04-26 15:05 53.47518 6.57033 9358 ft 179 kts 42°
2026-04-26 15:05 53.47797 6.57530 9362 ft 179 kts 42°
2026-04-26 15:05 53.49223 6.60083 9361 ft 179 kts 42°
2026-04-26 15:05 53.50074 6.61607 9355 ft 179 kts 42°
2026-04-26 15:06 53.50925 6.63133 9363 ft 179 kts 42°
2026-04-26 15:06 53.51788 6.64680 9362 ft 179 kts 42°
2026-04-26 15:06 53.52362 6.65709 9362 ft 179 kts 42°
2026-04-26 15:06 53.53249 6.67300 9358 ft 179 kts 42°
2026-04-26 15:07 53.54985 6.70415 9362 ft 179 kts 42°
2026-04-26 15:07 53.55851 6.71962 9362 ft 179 kts 42°
2026-04-26 15:07 53.56705 6.73495 9354 ft 180 kts 43°
2026-04-26 15:08 53.57562 6.75040 9355 ft 180 kts 43°
2026-04-26 15:08 53.58417 6.76582 9355 ft 180 kts 43°
2026-04-26 15:08 53.59280 6.78138 9356 ft 179 kts 42°
2026-04-26 15:08 53.60132 6.79673 9359 ft 180 kts 42°
2026-04-26 15:09 53.60992 6.81223 9354 ft 182 kts 43°
2026-04-26 15:09 53.61855 6.82785 9355 ft 181 kts 43°
2026-04-26 15:09 53.62713 6.84338 9359 ft 181 kts 43°
2026-04-26 15:09 53.63572 6.85890 9356 ft 181 kts 43°
2026-04-26 15:10 53.64426 6.87438 9358 ft 181 kts 43°
2026-04-26 15:10 53.64997 6.88473 9358 ft 183 kts 42°
2026-04-26 15:10 53.66154 6.90564 9353 ft 181 kts 43°
2026-04-26 15:10 53.67010 6.92119 9357 ft 180 kts 43°
2026-04-26 15:11 53.67864 6.93670 9361 ft 181 kts 43°
2026-04-26 15:11 53.68723 6.95227 9356 ft 180 kts 43°
2026-04-26 15:11 53.69577 6.96779 9360 ft 180 kts 43°
2026-04-26 15:11 53.70430 6.98328 9363 ft 180 kts 43°
2026-04-26 15:12 53.71279 6.99873 9360 ft 180 kts 43°
2026-04-26 15:12 53.72127 7.01419 9358 ft 179 kts 43°
2026-04-26 15:12 53.72974 7.02962 9360 ft 179 kts 43°
2026-04-26 15:12 53.73821 7.04506 9362 ft 179 kts 43°
2026-04-26 15:13 53.74670 7.06055 9361 ft 179 kts 43°
2026-04-26 15:13 53.75517 7.07601 9362 ft 179 kts 43°
2026-04-26 15:13 53.76364 7.09147 9357 ft 179 kts 43°
2026-04-26 15:13 53.77214 7.10702 9361 ft 179 kts 43°
2026-04-26 15:14 53.78059 7.12246 9360 ft 179 kts 43°
2026-04-26 15:14 53.78906 7.13796 9357 ft 180 kts 43°
2026-04-26 15:14 53.79754 7.15348 9360 ft 180 kts 43°
2026-04-26 15:14 53.80594 7.16886 9361 ft 179 kts 43°
2026-04-26 15:15 53.81451 7.18458 9362 ft 179 kts 43°
2026-04-26 15:15 53.82298 7.20012 9358 ft 179 kts 43°
2026-04-26 15:15 53.83131 7.21542 9361 ft 179 kts 43°
2026-04-26 15:15 53.83992 7.23124 9359 ft 179 kts 43°
2026-04-26 15:16 53.84835 7.24673 9360 ft 179 kts 43°
2026-04-26 15:16 53.85682 7.26232 9360 ft 179 kts 43°
2026-04-26 15:16 53.86526 7.27784 9358 ft 179 kts 43°
2026-04-26 15:16 53.87370 7.29338 9358 ft 179 kts 43°
2026-04-26 15:17 53.88215 7.30896 9360 ft 179 kts 43°
2026-04-26 15:17 53.88776 7.31930 9362 ft 180 kts 43°
2026-04-26 15:17 53.89906 7.34015 9358 ft 180 kts 43°
2026-04-26 15:17 53.90752 7.35578 9360 ft 180 kts 43°
2026-04-26 15:18 53.91597 7.37139 9360 ft 180 kts 43°
2026-04-26 15:18 53.92443 7.38701 9363 ft 179 kts 43°
2026-04-26 15:18 53.93287 7.40264 9358 ft 180 kts 43°
2026-04-26 15:18 53.94130 7.41826 9359 ft 179 kts 43°
2026-04-26 15:19 53.94974 7.43387 9355 ft 180 kts 43°
2026-04-26 15:19 53.95820 7.44954 9356 ft 179 kts 43°
2026-04-26 15:19 53.96663 7.46518 9359 ft 179 kts 43°
2026-04-26 15:19 53.97506 7.48083 9358 ft 179 kts 43°
2026-04-26 15:20 53.98349 7.49648 9356 ft 180 kts 43°
2026-04-26 15:20 53.99194 7.51218 9354 ft 180 kts 43°
2026-04-26 15:20 54.00049 7.52808 9359 ft 180 kts 43°
2026-04-26 15:20 54.00895 7.54382 9355 ft 180 kts 43°
2026-04-26 15:21 54.01738 7.55953 9360 ft 180 kts 43°
2026-04-26 15:21 54.02582 7.57526 9360 ft 180 kts 43°
2026-04-26 15:21 54.03424 7.59096 9362 ft 180 kts 43°
2026-04-26 15:21 54.04269 7.60672 9362 ft 180 kts 43°
2026-04-26 15:22 54.05110 7.62243 9364 ft 180 kts 43°
2026-04-26 15:22 54.05971 7.63851 9357 ft 180 kts 43°
2026-04-26 15:22 54.06815 7.65429 9357 ft 180 kts 43°
2026-04-26 15:22 54.07660 7.67008 9363 ft 180 kts 43°
2026-04-26 15:23 54.08502 7.68585 9359 ft 180 kts 43°
2026-04-26 15:23 54.09346 7.70165 9359 ft 180 kts 43°
2026-04-26 15:23 54.10187 7.71741 9358 ft 180 kts 43°
2026-04-26 15:23 54.11027 7.73315 9356 ft 180 kts 43°
2026-04-26 15:24 54.11584 7.74360 9354 ft 180 kts 43°
2026-04-26 15:24 54.12427 7.75944 9357 ft 180 kts 43°
2026-04-26 15:24 54.13266 7.77521 9355 ft 179 kts 43°
2026-04-26 15:24 54.14118 7.79121 9356 ft 179 kts 43°
2026-04-26 15:25 54.14955 7.80697 9358 ft 180 kts 43°
2026-04-26 15:25 54.15807 7.82301 9354 ft 180 kts 43°
2026-04-26 15:25 54.16657 7.83902 9360 ft 180 kts 43°
2026-04-26 15:25 54.17508 7.85505 9358 ft 179 kts 43°
2026-04-26 15:26 54.18359 7.87109 9357 ft 180 kts 43°
2026-04-26 15:26 54.19222 7.88735 9349 ft 181 kts 43°
2026-04-26 15:26 54.20064 7.90328 9354 ft 180 kts 43°
2026-04-26 15:26 54.20928 7.91962 9358 ft 180 kts 43°
2026-04-26 15:27 54.21781 7.93577 9351 ft 180 kts 43°
2026-04-26 15:27 54.22622 7.95166 9353 ft 180 kts 43°
2026-04-26 15:27 54.23462 7.96755 9353 ft 180 kts 43°
2026-04-26 15:27 54.24299 7.98342 9349 ft 180 kts 43°
2026-04-26 15:28 54.25148 7.99951 9352 ft 180 kts 43°
2026-04-26 15:28 54.25983 8.01536 9352 ft 179 kts 43°
2026-04-26 15:28 54.26832 8.03149 9352 ft 180 kts 43°
2026-04-26 15:28 54.27669 8.04739 9355 ft 180 kts 43°
2026-04-26 15:29 54.28505 8.06328 9352 ft 180 kts 43°
2026-04-26 15:29 54.29353 8.07940 9351 ft 180 kts 43°
2026-04-26 15:29 54.31038 8.11150 9345 ft 180 kts 43°
2026-04-26 15:30 54.32738 8.14391 9349 ft 180 kts 43°
2026-04-26 15:30 54.33586 8.16011 9348 ft 180 kts 43°
2026-04-26 15:30 54.34425 8.17608 9346 ft 180 kts 43°
2026-04-26 15:31 54.35272 8.19227 9346 ft 180 kts 43°
2026-04-26 15:31 54.36694 8.21952 9345 ft 180 kts 43°
2026-04-26 15:31 54.37526 8.23544 9344 ft 181 kts 43°
2026-04-26 15:32 54.38940 8.26255 9339 ft 181 kts 43°
2026-04-26 15:32 54.40062 8.28408 9342 ft 180 kts 43°
2026-04-26 15:32 54.40898 8.30011 9340 ft 180 kts 43°
2026-04-26 15:33 54.41732 8.31614 9341 ft 180 kts 43°
2026-04-26 15:33 54.42569 8.33223 9340 ft 180 kts 43°
2026-04-26 15:33 54.43403 8.34827 9341 ft 180 kts 43°
2026-04-26 15:33 54.44243 8.36443 9306 ft 182 kts 43°
2026-04-26 15:34 54.45100 8.38092 9164 ft 187 kts 43°
2026-04-26 15:34 54.45987 8.39795 9021 ft 190 kts 44°
2026-04-26 15:34 54.46873 8.41508 8890 ft 192 kts 44°
2026-04-26 15:34 54.47757 8.43217 8761 ft 192 kts 44°
2026-04-26 15:35 54.48674 8.44989 8628 ft 192 kts 44°
2026-04-26 15:35 54.49564 8.46710 8502 ft 193 kts 44°
2026-04-26 15:35 54.50469 8.48460 8397 ft 192 kts 44°
2026-04-26 15:35 54.51369 8.50200 8174 ft 197 kts 44°
2026-04-26 15:36 54.52315 8.52036 7866 ft 202 kts 45°
2026-04-26 15:36 54.53256 8.53863 7521 ft 205 kts 45°
2026-04-26 15:36 54.54208 8.55710 7215 ft 206 kts 45°
2026-04-26 15:36 54.55159 8.57557 6909 ft 206 kts 45°
2026-04-26 15:37 54.56113 8.59409 6587 ft 207 kts 45°
2026-04-26 15:37 54.57073 8.61278 6263 ft 204 kts 45°
2026-04-26 15:37 54.58018 8.63115 5922 ft 204 kts 45°
2026-04-26 15:37 54.58955 8.64937 5643 ft 201 kts 45°
2026-04-26 15:38 54.59930 8.66685 5372 ft 197 kts 36°
2026-04-26 15:38 54.61132 8.67818 5113 ft 192 kts 15°
2026-04-26 15:38 54.62440 8.68155 4860 ft 188 kts 355°
2026-04-26 15:38 54.63701 8.67734 4624 ft 183 kts 336°
2026-04-26 15:39 54.64795 8.66667 4394 ft 180 kts 322°
2026-04-26 15:39 54.65823 8.65410 4166 ft 182 kts 322°
2026-04-26 15:39 54.66863 8.64141 3941 ft 183 kts 322°
2026-04-26 15:39 54.67554 8.63297 3778 ft 183 kts 322°
2026-04-26 15:40 54.68951 8.61593 3464 ft 184 kts 322°
2026-04-26 15:40 54.69994 8.60319 3236 ft 183 kts 322°
2026-04-26 15:40 54.71027 8.59051 3004 ft 180 kts 323°
2026-04-26 15:40 54.72022 8.57834 2995 ft 172 kts 323°
2026-04-26 15:41 54.73001 8.56661 2993 ft 170 kts 323°
2026-04-26 15:41 54.73955 8.55478 2987 ft 167 kts 322°
2026-04-26 15:41 54.74891 8.54329 2984 ft 163 kts 323°
2026-04-26 15:41 54.75812 8.53198 2990 ft 162 kts 322°
2026-04-26 15:42 54.76723 8.52069 2991 ft 161 kts 322°
2026-04-26 15:42 54.77637 8.50946 2989 ft 158 kts 322°
2026-04-26 15:42 54.78533 8.49844 2984 ft 159 kts 322°
2026-04-26 15:42 54.79463 8.48695 2791 ft 169 kts 323°
2026-04-26 15:43 54.80447 8.47493 2549 ft 175 kts 323°
2026-04-26 15:43 54.81449 8.46261 2302 ft 178 kts 323°
2026-04-26 15:43 54.83156 8.44148 1878 ft 173 kts 323°
2026-04-26 15:44 54.84139 8.42936 1627 ft 169 kts 323°
2026-04-26 15:44 54.85994 8.40646 1169 ft 151 kts 323°
2026-04-26 15:44 54.86803 8.39645 963 ft 131 kts 323°
2026-04-26 15:45 54.88112 8.38022 640 ft 107 kts 323°
2026-04-26 15:45 54.88686 8.37315 486 ft 97 kts 323°
2026-04-26 15:46 54.89634 8.36144 248 ft 77 kts 323°
2026-04-26 15:46 54.90052 8.35631 154 ft 72 kts 322°
2026-04-26 15:46 54.90455 8.35125 58 ft 70 kts 322°
2026-04-26 15:46 54.90698 8.34822 32 ft 60 kts 321°
2026-04-26 15:47 54.91009 8.34433 31 ft 25 kts 324°
2026-04-26 15:47 54.91248 8.34141 31 ft 19 kts 324°
2026-04-26 15:47 54.91303 8.33993 30 ft 13 kts 248°
2026-04-26 15:48 54.91257 8.33855 29 ft 14 kts 240°
2026-04-26 15:48 54.91204 8.33697 28 ft 15 kts 239°
2026-04-26 15:48 54.91152 8.33531 27 ft 17 kts 253°
2026-04-26 15:48 54.91098 8.33353 28 ft 17 kts 238°
2026-04-26 15:49 54.91035 8.33171 28 ft 17 kts 243°
2026-04-26 15:49 54.91016 8.32995 27 ft 14 kts 298°
2026-04-26 15:49 54.91069 8.32883 25 ft 11 kts 312°
2026-04-26 15:49 54.91120 8.32787 22 ft 12 kts 311°
2026-04-26 15:50 54.91164 8.32698 22 ft 5 kts 308°
2026-04-26 15:50 54.91183 8.32656 22 ft 4 kts 308°
2026-04-26 15:50 54.91200 8.32626 22 ft 4 kts 320°
2026-04-26 15:50 54.91237 8.32584 22 ft 9 kts 331°
2026-04-26 15:51 54.91252 8.32522 22 ft 2 kts 244°
2026-04-26 15:51 54.91252 8.32519 22 ft 0 kts 244°